Weather History for Kalispell, MT

Change the Weather History Date:

Tuesday, November 22, 2011

  Actual Average Record
Temperature  
Mean Temperature 41 °F 30 °F  
Max Temperature 48 °F 37 °F 59 °F (1917)
Min Temperature 33 °F 23 °F -15 °F (1985)
Degree Days  
Heating Degree Days 24 35  
Month to date heating degree days 775 700  
Since 1 July heating degree days 1809 1908  
Cooling Degree Days 0 0  
Month to date cooling degree days 0 0  
Year to date cooling degree days 97 147  
Moisture  
Dew Point 33 °F    
Average Humidity 73    
Maximum Humidity 89    
Minimum Humidity 56    
Precipitation  
Precipitation T in 0.04 in 1.00 in (1926)
Month to date precipitation 0.31 1.04  
Year to date precipitation 15.32 15.04  
Snow  
Snow 0.00 in - - ()
Month to date snowfall 2.2  
Year to date snowfall 29.2  
Since 1 July snowfall 2.2  
Snow Depth 1.00 in    
Sea Level Pressure  
Sea Level Pressure 29.81 in    
Wind  
Wind Speed 12 mph (South)    
Max Wind Speed 23 mph    
Max Gust Speed 30 mph    
Visibility 10 miles    
Events Rain    
T = Trace of Precipitation, MM = Missing Value Source: NWS Daily Summary

Daily Weather History Graph

Daily Weather History Graph

Search for Another Location

Airport:

Trip Planner

Search our weather history database for the weather conditions in past years. The results will help you decide how hot, cold, wet, or windy it might be!

Date:

Astronomy

Nov. 22, 2011 Rise Set
Actual Time 7:54 AM MST 4:51 PM MST
Civil Twilight 7:19 AM MST 5:26 PM MST
Nautical Twilight 6:41 AM MST 6:04 PM MST
Astronomical Twilight 6:03 AM MST 6:41 PM MST
Moon 4:40 AM MST (11/22) 3:00 PM MST (11/22)
Length of Visible Light 10h 06m
Length of Day
8h 56m
Waning Crescent, 9% of the Moon is Illuminated
Nov 22
Waning Crescent
Nov 24
New
Dec 2
First Quarter
Dec 10
Full
Dec 17
Last Quarter

Hourly Weather History & Observations

Time (MST) Temp. Windchill Dew Point Humidity Pressure Visibility Wind Dir Wind Speed Gust Speed Precip Events Conditions
12:55 AM 34.0 °F - 30.0 °F 85% 29.93 in 10.0 mi Calm Calm - N/A   Overcast
1:55 AM 34.0 °F 31.0 °F 30.0 °F 85% 29.91 in 10.0 mi WNW 3.5 mph - N/A   Overcast
2:55 AM 35.1 °F 29.3 °F 30.0 °F 82% 29.87 in 10.0 mi South 6.9 mph - N/A   Overcast
3:55 AM 37.9 °F 34.4 °F 28.9 °F 70% 29.85 in 10.0 mi WSW 4.6 mph - N/A   Overcast
4:55 AM 36.0 °F - 30.0 °F 79% 29.83 in 10.0 mi Calm Calm - N/A   Overcast
5:55 AM 37.0 °F 32.4 °F 28.9 °F 73% 29.80 in 10.0 mi WNW 5.8 mph - N/A   Overcast
6:55 AM 37.0 °F 32.4 °F 28.9 °F 73% 29.82 in 10.0 mi WSW 5.8 mph - N/A   Overcast
7:55 AM 39.2 °F 32.0 °F 30.2 °F 70% 29.76 in 10.0 mi SSE 11.5 mph - N/A   Overcast
8:55 AM 39.9 °F 32.9 °F 32.0 °F 73% 29.80 in 10.0 mi SSE 11.5 mph - N/A   Overcast
9:55 AM 39.9 °F 31.8 °F 32.0 °F 73% 29.81 in 10.0 mi South 15.0 mph - 0.00 in Rain Light Rain
10:55 AM 41.0 °F 33.1 °F 33.1 °F 73% 29.81 in 10.0 mi SSE 15.0 mph - 0.00 in   Overcast
11:55 AM 41.0 °F 32.8 °F 33.1 °F 73% 29.79 in 10.0 mi SSE 16.1 mph - 0.00 in   Overcast
12:55 PM 41.0 °F 33.1 °F 35.1 °F 79% 29.77 in 10.0 mi SSE 15.0 mph 25.3 mph 0.00 in Rain Light Rain
1:55 PM 43.0 °F 34.5 °F 36.0 °F 76% 29.75 in 10.0 mi SSE 19.6 mph 28.8 mph 0.00 in Rain Light Rain
2:55 PM 43.0 °F 34.5 °F 36.0 °F 76% 29.75 in 10.0 mi SSE 19.6 mph 25.3 mph 0.00 in Rain Light Rain
3:55 PM 43.0 °F 36.8 °F 36.0 °F 76% 29.75 in 10.0 mi South 11.5 mph - 0.00 in   Overcast
4:55 PM 46.0 °F 39.6 °F 35.1 °F 66% 29.76 in 10.0 mi South 15.0 mph 23.0 mph N/A   Overcast
5:55 PM 46.0 °F 39.9 °F 34.0 °F 63% 29.77 in 10.0 mi South 13.8 mph - N/A   Overcast
6:55 PM 45.0 °F 40.6 °F 34.0 °F 65% 29.79 in 10.0 mi SSE 8.1 mph - N/A   Overcast
7:55 PM 46.0 °F 38.5 °F 34.0 °F 63% 29.79 in 10.0 mi SSE 19.6 mph 25.3 mph N/A   Overcast
8:55 PM 46.9 °F - 34.0 °F 61% 29.80 in 10.0 mi SSE 13.8 mph - N/A   Overcast
9:55 PM 48.0 °F - 34.0 °F 58% 29.81 in 10.0 mi SSE 19.6 mph - N/A   Overcast
10:55 PM 46.9 °F - 34.0 °F 61% 29.81 in 10.0 mi South 19.6 mph 24.2 mph N/A   Overcast
11:55 PM 48.0 °F - 35.1 °F 61% 29.81 in 10.0 mi South 18.4 mph 25.3 mph 0.00 in   Overcast